[Iaude] MPEC K70: 2017 BK233 [a=46.99,e=0.12,i=6.5,H=7.72]
    mpec at cfa.harvard.edu 
    mpec at cfa.harvard.edu
       
    Thu May 23 13:10:02 EDT 2024
    
    
  
M.P.E.C. 2024-K70                                  Issued 2024 May 23, 17:08 UT
     The Minor Planet Electronic Circulars contain information on unusual
         minor planets, routine data on comets and natural satellites,
         and occasional editorial announcements.  They are published
    on behalf of Division F of the International Astronomical Union by the
          Minor Planet Center, Smithsonian Astrophysical Observatory,
                          Cambridge, MA 02138, U.S.A.
			  
             Prepared using the Tamkin Foundation Computer Network
                              MPC at CFA.HARVARD.EDU
            URL https://www.minorplanetcenter.net/    ISSN 1523-6714
                                   2017 BK233                                   
Additional Observations:
     K17BN3K 1C2016 04 02.39340712 26 43.29 +00 17 13.6                WEK070T09
     K17BN3K 1C2016 04 02.44456512 26 43.10 +00 17 14.9                WEK070T09
     K17BN3K 1C2016 06 05.32638112 23 47.57 +00 34 53.5                WEK070T09
     K17BN3K 1C2016 06 05.35825112 23 47.55 +00 34 53.5                WEK070T09
     K17BN3K 1C2017 01 23.63040012 34 04.97 -00 26 56.8                WEK070T09
     K17BN3K 1C2017 02 23.53581812 32 56.93 -00 17 29.0                WEK070T09
     K17BN3K 1C2017 02 23.60799612 32 56.70 -00 17 27.3                WEK070T09
Observer details:
T09 Subaru Telescope, Maunakea.  Observer .  Measurer S. Deen.  8.3-m Subaru
    Telescope + CCD.
Orbital elements:
2017 BK233                                                                      
Epoch 2024 Mar. 31.0 TT = JDT 2460400.5                 Alexandersen            
M 258.76293              (2000.0)            P               Q                  
n   0.00305955     Peri.  148.33706     +0.62399921     +0.78048230             
a  46.9927804      Node   160.18789     -0.73850586     +0.60506500             
e   0.1184492      Incl.    6.50046     -0.25540964     +0.15730136             
P 322              H    7.72          G   0.15           U   8                  
Residuals in seconds of arc
160402 T09  0.1-  0.0     170128 T09  0.0   0.1+    170202 T09  0.1-  0.0
160402 T09  0.1+  0.0     170128 T09  0.0   0.2-    170202 T09  0.0   0.0
160605 T09  0.1-  0.0     170128 T09  0.2-  0.1-    170202 T09  0.0   0.1+
160605 T09  0.1+  0.1-    170128 T09  0.1-  0.1+    170223 T09  0.0   0.0
170123 T09  0.2+  0.0     170202 T09  0.2+  0.0     170223 T09  0.0   0.0
Ephemeris:
2017 BK233               a,e,i = 46.99, 0.12, 7                  q = 41.4265
Date    TT    R. A. (2000) Decl.     Delta      r    Elong.  Phase     V
2024 04 23    12 57 11.4 -02 03 52  47.7296 48.6791   160.6     0.4    24.6
...
2024 05 08    12 56 19.4 -01 58 43  47.8352 48.6750   146.0     0.7    24.7
...
2024 05 16    12 55 55.2 -01 56 27  47.9145 48.6728   138.2     0.8    24.7
...
2024 05 22    12 55 39.2 -01 55 02  47.9833 48.6712   132.4     0.9    24.7
2024 05 23    12 55 36.8 -01 54 49  47.9954 48.6709   131.4     0.9    24.7
2024 05 24    12 55 34.3 -01 54 36  48.0078 48.6706   130.4     0.9    24.7
...
2024 05 30    12 55 21.1 -01 53 31  48.0857 48.6690   124.6     1.0    24.7
...
2024 06 07    12 55 06.9 -01 52 28  48.1987 48.6668   116.9     1.1    24.7
...
2024 06 22    12 54 52.1 -01 51 50  48.4313 48.6627   102.6     1.2    24.8
M. P. C. Staff               (C) Copyright 2024 MPC           M.P.E.C. 2024-K70
    
    
More information about the Iaude
mailing list